George, South Africa

11:26 AM SAST on January 22, 2018 (GMT +0200)
George

Weather History for FAGG - September, 2012

Change the Weather History Date:

Thursday, September 6, 2012

  Actual Average Record
Temperature  
Mean Temperature 56 °F -  
Max Temperature 66 °F 65 °F 83 °F (2015)
Min Temperature 45 °F 48 °F 39 °F (2008)
Degree Days  
Heating Degree Days 10    
Growing Degree Days 6 (Base 50)    
Moisture  
Dew Point 51 °F    
Average Humidity 82    
Maximum Humidity 94    
Minimum Humidity 56    
Precipitation  
Precipitation 0.00 in - - ()
Sea Level Pressure  
Sea Level Pressure 30.35 in    
Wind  
Wind Speed 6 mph ()    
Max Wind Speed 20 mph    
Max Gust Speed -    
Visibility 8.4 miles    
Events Rain    
Averages and records for this station are not official NWS values.
T = Trace of Precipitation, MM = Missing Value Source: Averaged Metar Reports

Daily Weather History Graph

Daily Weather History Graph

Search for Another Location

Airport or City:

Trip Planner

Search our weather history database for the weather conditions in past years. The results will help you decide how hot, cold, wet, or windy it might be!

Date:

Astronomy

Sep. 06, 2012 Rise Set
Actual Time 6:41 AM SAST 6:16 PM SAST
Civil Twilight 6:16 AM SAST 6:41 PM SAST
Nautical Twilight 5:47 AM SAST 7:10 PM SAST
Astronomical Twilight 5:18 AM SAST 7:39 PM SAST
Moon 11:59 PM SAST (9/6) 9:44 AM SAST (9/6)
Length of Visible Light 12h 24m
Length of Day
11h 34m
Waning Gibbous, 70% of the Moon is Illuminated
Sep 6
Waning Gibbous
Sep 8
Last Quarter
Sep 16
New
Sep 22
First Quarter
Sep 30
Full

Hourly Weather History & Observations

Time (SAST) Temp. Windchill Dew Point Humidity Pressure Visibility Wind Dir Wind Speed Gust Speed Precip Events Conditions
12:00 AM 53.6 °F - 50.0 °F 88% 30.36 in 6.2 mi NW 4.6 mph - N/A Rain Light Rain
1:00 AM 51.8 °F - 50.0 °F 94% 30.39 in 6.2 mi North 3.5 mph - N/A   Scattered Clouds
2:00 AM 51 °F - 48 °F 86% 30.40 in 6 mi 3.5 mph - -  
2:00 AM 50.0 °F - 48.2 °F 94% 30.39 in 6.2 mi East 3.5 mph - N/A   Partly Cloudy
3:00 AM 51.8 °F - 50.0 °F 94% 30.36 in 6.2 mi ENE 3.5 mph - N/A   Partly Cloudy
4:00 AM 51.8 °F - 50.0 °F 94% 30.36 in - SE 3.5 mph - N/A   Clear
5:00 AM 49 °F - 47 °F 89% 30.38 in 12 mi NE 5.8 mph - -  
5:00 AM 48.2 °F - 46.4 °F 93% 30.36 in - NNE 5.8 mph - N/A   Clear
6:00 AM 48.2 °F - 46.4 °F 93% 30.36 in - NW 4.6 mph - N/A   Clear
7:00 AM 46.4 °F 43.5 °F 44.6 °F 93% 30.39 in 6.2 mi WNW 5.8 mph - N/A   Partly Cloudy
8:00 AM 51 °F - 49 °F 92% 30.43 in 19 mi WNW 3.5 mph - -  
8:00 AM 51.8 °F - 50.0 °F 94% 30.42 in - Variable 2.3 mph - N/A   Clear
9:00 AM 59.0 °F - 51.8 °F 77% 30.42 in - Variable 3.5 mph - N/A   Clear
10:00 AM 60.8 °F - 53.6 °F 77% 30.42 in 6.2 mi SSE 12.7 mph - N/A   Partly Cloudy
11:00 AM 62 °F - 54 °F 68% 30.43 in 19 mi ESE 6.9 mph - -   Scattered Clouds
11:00 AM 62.6 °F - 53.6 °F 72% 30.42 in 6.2 mi ESE 6.9 mph - N/A   Partly Cloudy
12:00 PM 64.4 °F - 53.6 °F 68% 30.42 in 6.2 mi ESE 9.2 mph - N/A   Partly Cloudy
1:00 PM 64.4 °F - 51.8 °F 64% 30.39 in 6.2 mi ESE 15.0 mph - N/A   Partly Cloudy
2:00 PM 65 °F - 53 °F 56% 30.35 in 12 mi East 16.1 mph - -   Scattered Clouds
2:00 PM 66.2 °F - 55.4 °F 68% 30.36 in 6.2 mi East 16.1 mph - N/A   Partly Cloudy
3:00 PM 66.2 °F - 55.4 °F 68% 30.30 in 6.2 mi East 15.0 mph - N/A   Partly Cloudy
4:00 PM 64.4 °F - 55.4 °F 73% 30.30 in 6.2 mi East 19.6 mph - N/A   Partly Cloudy
5:00 PM 63 °F - 54 °F 66% 30.29 in 12 mi ESE 17.3 mph - -   Scattered Clouds
5:00 PM 62.6 °F - 55.4 °F 77% 30.27 in 6.2 mi ESE 17.3 mph - N/A   Partly Cloudy
6:00 PM 60.8 °F - 53.6 °F 77% 30.27 in 6.2 mi East 15.0 mph - N/A   Partly Cloudy
7:00 PM 57.2 °F - 51.8 °F 82% 30.30 in 6.2 mi SE 6.9 mph - N/A   Partly Cloudy
8:00 PM 56 °F - 51 °F 80% 30.30 in 12 mi NE 4.6 mph - -  
8:00 PM 55.4 °F - 51.8 °F 88% 30.27 in - ENE 4.6 mph - N/A   Clear
9:00 PM 55.4 °F - 50.0 °F 82% 30.27 in - NE 3.5 mph - N/A   Clear
10:00 PM 51.8 °F - 48.2 °F 88% 30.27 in - WNW 5.8 mph - N/A   Clear
11:00 PM 51.8 °F - 50.0 °F 94% 30.24 in - Variable 2.3 mph - N/A   Clear